date,time,SUV Intensity [MED/Hr],UV Index,Daily total [MED],Since Last [MED]
01/02/2022,00:04:08,0.000,0.0,0.0,0.0
01/02/2022,00:05:08,0.000,0.0,0.0,0.0
01/02/2022,00:06:08,0.000,0.0,0.0,0.0
01/02/2022,00:07:09,0.000,0.0,0.0,0.0
01/02/2022,00:08:10,0.000,0.0,0.0,0.0
01/02/2022,00:09:08,0.000,0.0,0.0,0.0
01/02/2022,00:10:17,0.001,0.0,0.0,0.0
01/02/2022,00:11:06,0.000,0.0,0.0,0.0
01/02/2022,00:12:08,0.000,0.0,0.0,0.0
01/02/2022,00:13:08,0.000,0.0,0.0,0.0
01/02/2022,00:14:08,0.000,0.0,0.0,0.0
01/02/2022,00:15:08,0.000,0.0,0.0,0.0
01/02/2022,00:16:08,0.000,0.0,0.0,0.0
01/02/2022,00:17:02,0.000,0.0,0.0,0.0
01/02/2022,00:18:10,0.000,0.0,0.0,0.0
01/02/2022,00:19:08,0.000,0.0,0.0,0.0
01/02/2022,00:20:09,0.000,0.0,0.0,0.0
01/02/2022,00:21:09,0.000,0.0,0.0,0.0
01/02/2022,00:22:08,0.000,0.0,0.0,0.0
01/02/2022,00:23:08,0.000,0.0,0.0,0.0
01/02/2022,00:24:08,0.001,0.0,0.0,0.0
01/02/2022,00:25:08,0.000,0.0,0.0,0.0
01/02/2022,00:26:08,0.000,0.0,0.0,0.0
01/02/2022,00:27:08,0.000,0.0,0.0,0.0
01/02/2022,00:28:09,0.000,0.0,0.0,0.0
01/02/2022,00:29:08,0.000,0.0,0.0,0.0
01/02/2022,00:30:08,0.000,0.0,0.0,0.0
01/02/2022,00:31:10,-0.000,0.0,0.0,0.0
01/02/2022,00:32:08,-0.000,0.0,0.0,0.0
01/02/2022,00:33:08,0.000,0.0,0.0,0.0
01/02/2022,00:34:17,0.000,0.0,0.0,0.0
01/02/2022,00:35:08,-0.000,0.0,0.0,0.0
01/02/2022,00:36:08,-0.000,0.0,0.0,0.0
01/02/2022,00:37:08,-0.001,0.0,0.0,0.0
01/02/2022,00:38:08,0.000,0.0,0.0,0.0
01/02/2022,00:39:08,-0.000,0.0,0.0,0.0
01/02/2022,00:40:08,-0.000,0.0,0.0,0.0
01/02/2022,00:41:08,0.000,0.0,0.0,0.0
01/02/2022,00:42:07,-0.000,0.0,0.0,0.0
01/02/2022,00:43:08,-0.000,0.0,0.0,0.0
01/02/2022,00:44:16,-0.000,0.0,0.0,0.0
01/02/2022,00:45:08,-0.000,0.0,0.0,0.0
01/02/2022,00:46:08,-0.000,0.0,0.0,0.0
01/02/2022,00:47:08,-0.000,0.0,0.0,0.0
01/02/2022,00:48:08,-0.000,0.0,0.0,0.0
01/02/2022,00:49:09,-0.000,0.0,0.0,0.0
01/02/2022,00:50:08,-0.000,0.0,0.0,0.0
01/02/2022,00:51:08,-0.000,0.0,0.0,0.0
01/02/2022,00:52:08,0.000,0.0,0.0,0.0
01/02/2022,00:53:08,-0.000,0.0,0.0,0.0
01/02/2022,00:54:08,-0.000,0.0,0.0,0.0
01/02/2022,00:56:24,-0.000,0.0,0.0,0.0
01/02/2022,00:58:09,-0.000,0.0,0.0,0.0
01/02/2022,00:59:08,-0.000,0.0,0.0,0.0
01/02/2022,01:00:08,-0.000,0.0,0.0,0.0
01/02/2022,01:01:08,-0.000,0.0,0.0,0.0
01/02/2022,01:02:08,-0.000,0.0,0.0,0.0
01/02/2022,01:03:08,-0.000,0.0,0.0,0.0
01/02/2022,01:04:08,-0.000,0.0,0.0,0.0
01/02/2022,01:05:16,0.000,0.0,0.0,0.0
01/02/2022,01:06:08,0.000,0.0,0.0,0.0
01/02/2022,01:07:08,0.000,0.0,0.0,0.0
01/02/2022,01:08:16,-0.000,0.0,0.0,0.0
01/02/2022,01:09:08,-0.000,0.0,0.0,0.0
01/02/2022,01:10:08,-0.000,0.0,0.0,0.0
01/02/2022,01:11:08,-0.000,0.0,0.0,0.0
01/02/2022,01:12:17,-0.000,0.0,0.0,0.0
01/02/2022,01:13:07,-0.000,0.0,0.0,0.0
01/02/2022,01:14:08,-0.000,0.0,0.0,0.0
01/02/2022,01:15:08,0.000,0.0,0.0,0.0
01/02/2022,01:16:08,-0.001,0.0,0.0,0.0
01/02/2022,01:17:08,-0.000,0.0,0.0,0.0
01/02/2022,01:18:08,-0.000,0.0,0.0,0.0
01/02/2022,01:19:08,-0.000,0.0,0.0,0.0
01/02/2022,01:20:08,-0.000,0.0,0.0,0.0
01/02/2022,01:21:17,0.000,0.0,0.0,0.0
01/02/2022,01:22:16,0.000,0.0,0.0,0.0
01/02/2022,01:23:09,-0.001,0.0,0.0,0.0
01/02/2022,01:24:08,-0.000,0.0,0.0,0.0
01/02/2022,01:25:08,-0.000,0.0,0.0,0.0
01/02/2022,01:26:08,-0.000,0.0,0.0,0.0
01/02/2022,01:27:08,-0.000,0.0,0.0,0.0
01/02/2022,01:28:09,-0.000,0.0,0.0,0.0
01/02/2022,01:29:08,0.000,0.0,0.0,0.0
01/02/2022,01:30:08,0.000,0.0,0.0,0.0
01/02/2022,01:31:08,0.000,0.0,0.0,0.0
01/02/2022,01:32:09,0.000,0.0,0.0,0.0
01/02/2022,01:33:08,-0.001,0.0,0.0,0.0
01/02/2022,01:34:08,0.000,0.0,0.0,0.0
01/02/2022,01:35:08,-0.000,0.0,0.0,0.0
01/02/2022,01:36:08,-0.000,0.0,0.0,0.0
01/02/2022,01:37:09,-0.000,0.0,0.0,0.0
01/02/2022,01:38:08,-0.000,0.0,0.0,0.0
01/02/2022,01:39:17,0.000,0.0,0.0,0.0
01/02/2022,01:40:06,0.000,0.0,0.0,0.0
01/02/2022,01:41:09,-0.000,0.0,0.0,0.0
01/02/2022,01:42:08,0.000,0.0,0.0,0.0
01/02/2022,01:43:09,-0.000,0.0,0.0,0.0
01/02/2022,01:44:10,-0.000,0.0,0.0,0.0
01/02/2022,01:45:16,-0.000,0.0,0.0,0.0
01/02/2022,01:46:08,0.000,0.0,0.0,0.0
01/02/2022,01:47:09,0.000,0.0,0.0,0.0
01/02/2022,01:48:08,0.000,0.0,0.0,0.0
01/02/2022,01:49:08,0.000,0.0,0.0,0.0
01/02/2022,01:50:08,-0.000,0.0,0.0,0.0
01/02/2022,01:51:08,-0.000,0.0,0.0,0.0
01/02/2022,01:52:08,-0.000,0.0,0.0,0.0
01/02/2022,01:53:10,0.000,0.0,0.0,0.0
01/02/2022,01:54:08,-0.000,0.0,0.0,0.0
01/02/2022,01:55:17,-0.000,0.0,0.0,0.0
01/02/2022,01:56:16,-0.000,0.0,0.0,0.0
01/02/2022,01:57:08,-0.000,0.0,0.0,0.0
01/02/2022,01:58:08,-0.001,0.0,0.0,0.0
01/02/2022,01:59:09,-0.000,0.0,0.0,0.0
01/02/2022,02:00:08,-0.000,0.0,0.0,0.0
01/02/2022,02:01:08,-0.000,0.0,0.0,0.0
01/02/2022,02:02:10,-0.001,0.0,0.0,0.0
01/02/2022,02:03:08,-0.000,0.0,0.0,0.0
01/02/2022,02:04:08,0.000,0.0,0.0,0.0
01/02/2022,02:05:08,-0.000,0.0,0.0,0.0
01/02/2022,02:06:08,-0.000,0.0,0.0,0.0
01/02/2022,02:07:09,-0.000,0.0,0.0,0.0
01/02/2022,02:09:01,0.000,0.0,0.0,0.0
01/02/2022,02:10:09,0.000,0.0,0.0,0.0
01/02/2022,02:11:08,-0.001,0.0,0.0,0.0
01/02/2022,02:12:08,0.001,0.0,0.0,0.0
01/02/2022,02:13:09,-0.000,0.0,0.0,0.0
01/02/2022,02:14:08,-0.000,0.0,0.0,0.0
01/02/2022,02:15:09,0.000,0.0,0.0,0.0
01/02/2022,02:16:08,-0.000,0.0,0.0,0.0
01/02/2022,02:17:08,0.000,0.0,0.0,0.0
01/02/2022,02:18:08,-0.000,0.0,0.0,0.0
01/02/2022,02:19:16,-0.000,0.0,0.0,0.0
01/02/2022,02:20:09,-0.000,0.0,0.0,0.0
01/02/2022,02:21:08,-0.000,0.0,0.0,0.0
01/02/2022,02:22:09,0.000,0.0,0.0,0.0
01/02/2022,02:23:08,-0.000,0.0,0.0,0.0
01/02/2022,02:24:08,0.000,0.0,0.0,0.0
01/02/2022,02:25:08,-0.000,0.0,0.0,0.0
01/02/2022,02:26:09,-0.000,0.0,0.0,0.0
01/02/2022,02:27:08,0.000,0.0,0.0,0.0
01/02/2022,02:28:08,0.000,0.0,0.0,0.0
01/02/2022,02:29:09,-0.001,0.0,0.0,0.0
01/02/2022,02:30:09,-0.000,0.0,0.0,0.0
01/02/2022,02:31:09,-0.000,0.0,0.0,0.0
01/02/2022,02:32:08,-0.000,0.0,0.0,0.0
01/02/2022,02:33:09,0.000,0.0,0.0,0.0
01/02/2022,02:34:09,-0.001,0.0,0.0,0.0
01/02/2022,02:35:08,-0.000,0.0,0.0,0.0
01/02/2022,02:36:09,-0.000,0.0,0.0,0.0
01/02/2022,02:37:09,0.000,0.0,0.0,0.0
01/02/2022,02:38:09,0.000,0.0,0.0,0.0
01/02/2022,02:39:08,-0.000,0.0,0.0,0.0
01/02/2022,02:40:16,-0.000,0.0,0.0,0.0
01/02/2022,02:41:08,-0.000,0.0,0.0,0.0
01/02/2022,02:42:09,-0.000,0.0,0.0,0.0
01/02/2022,02:43:08,-0.000,0.0,0.0,0.0
01/02/2022,02:44:08,-0.000,0.0,0.0,0.0
01/02/2022,02:45:08,-0.000,0.0,0.0,0.0
01/02/2022,02:46:08,-0.000,0.0,0.0,0.0
01/02/2022,02:47:08,-0.000,0.0,0.0,0.0
01/02/2022,02:48:08,-0.001,0.0,0.0,0.0
01/02/2022,02:49:09,-0.001,0.0,0.0,0.0
01/02/2022,02:50:09,-0.001,0.0,0.0,0.0
01/02/2022,02:51:08,-0.001,0.0,0.0,0.0
01/02/2022,02:52:17,0.000,0.0,0.0,0.0
01/02/2022,02:53:10,0.000,0.0,0.0,0.0
01/02/2022,02:54:08,-0.000,0.0,0.0,0.0
01/02/2022,02:55:08,0.000,0.0,0.0,0.0
01/02/2022,02:56:16,-0.001,0.0,0.0,0.0
01/02/2022,02:57:08,-0.001,0.0,0.0,0.0
01/02/2022,02:58:08,-0.000,0.0,0.0,0.0
01/02/2022,02:59:09,-0.001,0.0,0.0,0.0
01/02/2022,03:00:08,-0.001,0.0,0.0,0.0
01/02/2022,03:01:08,0.000,0.0,0.0,0.0
01/02/2022,03:02:09,-0.001,0.0,0.0,0.0
01/02/2022,03:03:08,-0.000,0.0,0.0,0.0
01/02/2022,03:04:08,-0.001,0.0,0.0,0.0
01/02/2022,03:05:08,0.000,0.0,0.0,0.0
01/02/2022,03:06:08,-0.000,0.0,0.0,0.0
01/02/2022,03:07:09,-0.001,0.0,0.0,0.0
01/02/2022,03:08:08,0.000,0.0,0.0,0.0
01/02/2022,03:09:08,-0.000,0.0,0.0,0.0
01/02/2022,03:10:08,0.000,0.0,0.0,0.0
01/02/2022,03:11:09,-0.001,0.0,0.0,0.0
01/02/2022,03:12:08,-0.001,0.0,0.0,0.0
01/02/2022,03:13:08,-0.000,0.0,0.0,0.0
01/02/2022,03:14:08,-0.000,0.0,0.0,0.0
01/02/2022,03:15:08,-0.001,0.0,0.0,0.0
01/02/2022,03:16:09,-0.001,0.0,0.0,0.0
01/02/2022,03:17:17,0.000,0.0,0.0,0.0
01/02/2022,03:18:08,-0.001,0.0,0.0,0.0
01/02/2022,03:19:08,-0.000,0.0,0.0,0.0
01/02/2022,03:20:16,-0.001,0.0,0.0,0.0
01/02/2022,03:21:08,0.000,0.0,0.0,0.0
01/02/2022,03:22:09,-0.000,0.0,0.0,0.0
01/02/2022,03:23:09,-0.001,0.0,0.0,0.0
01/02/2022,03:25:09,-0.001,0.0,0.0,0.0
01/02/2022,03:26:08,0.000,0.0,0.0,0.0
01/02/2022,03:27:17,-0.000,0.0,0.0,0.0
01/02/2022,03:28:07,-0.001,0.0,0.0,0.0
01/02/2022,03:29:09,0.000,0.0,0.0,0.0
01/02/2022,03:30:08,-0.000,0.0,0.0,0.0
01/02/2022,03:31:08,0.000,0.0,0.0,0.0
01/02/2022,03:32:08,-0.001,0.0,0.0,0.0
01/02/2022,03:33:09,-0.000,0.0,0.0,0.0
01/02/2022,03:34:10,0.000,0.0,0.0,0.0
01/02/2022,03:35:08,-0.001,0.0,0.0,0.0
01/02/2022,03:36:08,-0.000,0.0,0.0,0.0
01/02/2022,03:37:09,0.000,0.0,0.0,0.0
01/02/2022,03:38:08,-0.001,0.0,0.0,0.0
01/02/2022,03:39:08,-0.000,0.0,0.0,0.0
01/02/2022,03:40:18,-0.000,0.0,0.0,0.0
01/02/2022,03:41:08,-0.001,0.0,0.0,0.0
01/02/2022,03:42:08,-0.001,0.0,0.0,0.0
01/02/2022,03:43:09,-0.001,0.0,0.0,0.0
01/02/2022,03:44:09,-0.001,0.0,0.0,0.0
01/02/2022,03:45:09,-0.001,0.0,0.0,0.0
01/02/2022,03:46:09,-0.000,0.0,0.0,0.0
01/02/2022,03:48:00,-0.001,0.0,0.0,0.0
01/02/2022,03:49:09,-0.001,0.0,0.0,0.0
01/02/2022,03:50:17,-0.000,0.0,0.0,0.0
01/02/2022,03:51:17,-0.001,0.0,0.0,0.0
01/02/2022,03:52:07,0.000,0.0,0.0,0.0
01/02/2022,03:53:10,-0.000,0.0,0.0,0.0
01/02/2022,03:54:16,-0.001,0.0,0.0,0.0
01/02/2022,03:55:08,-0.002,0.0,0.0,0.0
01/02/2022,03:56:09,-0.000,0.0,0.0,0.0
01/02/2022,03:57:08,-0.001,0.0,0.0,0.0
01/02/2022,03:58:11,-0.001,0.0,0.0,0.0
01/02/2022,03:59:08,-0.000,0.0,0.0,0.0
01/02/2022,04:00:08,0.000,0.0,0.0,0.0
01/02/2022,04:01:09,-0.001,0.0,0.0,0.0
01/02/2022,04:02:09,-0.001,0.0,0.0,0.0
01/02/2022,04:03:09,-0.001,0.0,0.0,0.0
01/02/2022,04:04:17,-0.001,0.0,0.0,0.0
01/02/2022,04:05:09,0.000,0.0,0.0,0.0
01/02/2022,04:06:09,-0.000,0.0,0.0,0.0
01/02/2022,04:07:08,-0.001,0.0,0.0,0.0
01/02/2022,04:08:09,-0.001,0.0,0.0,0.0
01/02/2022,04:09:08,-0.001,0.0,0.0,0.0
01/02/2022,04:10:09,-0.000,0.0,0.0,0.0
01/02/2022,04:11:08,-0.001,0.0,0.0,0.0
01/02/2022,04:12:09,-0.001,0.0,0.0,0.0
01/02/2022,04:13:09,0.000,0.0,0.0,0.0
01/02/2022,04:14:09,-0.001,0.0,0.0,0.0
01/02/2022,04:15:08,-0.001,0.0,0.0,0.0
01/02/2022,04:17:10,-0.001,0.0,0.0,0.0
01/02/2022,04:18:08,-0.001,0.0,0.0,0.0
01/02/2022,04:19:09,-0.001,0.0,0.0,0.0
01/02/2022,04:20:08,-0.001,0.0,0.0,0.0
01/02/2022,04:21:09,-0.001,0.0,0.0,0.0
01/02/2022,04:22:09,-0.001,0.0,0.0,0.0
01/02/2022,04:23:08,-0.001,0.0,0.0,0.0
01/02/2022,04:24:08,-0.000,0.0,0.0,0.0
01/02/2022,04:25:16,-0.001,0.0,0.0,0.0
01/02/2022,04:26:08,-0.001,0.0,0.0,0.0
01/02/2022,04:27:08,-0.001,0.0,0.0,0.0
01/02/2022,04:28:08,-0.001,0.0,0.0,0.0
01/02/2022,04:29:09,-0.001,0.0,0.0,0.0
01/02/2022,04:30:08,-0.001,0.0,0.0,0.0
01/02/2022,04:31:08,-0.001,0.0,0.0,0.0
01/02/2022,04:32:09,-0.000,0.0,0.0,0.0
01/02/2022,04:33:09,-0.001,0.0,0.0,0.0
01/02/2022,04:34:08,-0.001,0.0,0.0,0.0
01/02/2022,04:35:08,-0.001,0.0,0.0,0.0
01/02/2022,04:36:10,-0.001,0.0,0.0,0.0
01/02/2022,04:37:09,0.000,0.0,0.0,0.0
01/02/2022,04:38:18,-0.001,0.0,0.0,0.0
01/02/2022,04:39:09,0.000,0.0,0.0,0.0
01/02/2022,04:40:10,-0.001,0.0,0.0,0.0
01/02/2022,04:41:08,-0.002,0.0,0.0,0.0
01/02/2022,04:42:08,-0.001,0.0,0.0,0.0
01/02/2022,04:43:09,-0.001,0.0,0.0,0.0
01/02/2022,04:44:09,-0.001,0.0,0.0,0.0
01/02/2022,04:45:09,-0.001,0.0,0.0,0.0
01/02/2022,04:46:09,-0.001,0.0,0.0,0.0
01/02/2022,04:47:08,-0.002,0.0,0.0,0.0
01/02/2022,04:48:08,-0.001,0.0,0.0,0.0
01/02/2022,04:49:09,0.000,0.0,0.0,0.0
01/02/2022,04:50:09,-0.001,0.0,0.0,0.0
01/02/2022,04:51:08,-0.001,0.0,0.0,0.0
01/02/2022,04:52:09,-0.001,0.0,0.0,0.0
01/02/2022,04:53:09,0.000,0.0,0.0,0.0
01/02/2022,04:54:09,-0.001,0.0,0.0,0.0
01/02/2022,04:55:09,0.000,0.0,0.0,0.0
01/02/2022,04:56:17,0.000,0.0,0.0,0.0
01/02/2022,04:57:09,-0.001,0.0,0.0,0.0
01/02/2022,04:58:08,-0.001,0.0,0.0,0.0
01/02/2022,04:59:17,-0.001,0.0,0.0,0.0
01/02/2022,05:00:08,-0.001,0.0,0.0,0.0
01/02/2022,05:01:09,-0.001,0.0,0.0,0.0
01/02/2022,05:02:17,-0.002,0.0,0.0,0.0
01/02/2022,05:03:08,-0.001,0.0,0.0,0.0
01/02/2022,05:04:08,0.001,0.0,0.0,0.0
01/02/2022,05:05:09,-0.000,0.0,0.0,0.0
01/02/2022,05:06:09,-0.000,0.0,0.0,0.0
01/02/2022,05:07:09,-0.001,0.0,0.0,0.0
01/02/2022,05:08:08,-0.001,0.0,0.0,0.0
01/02/2022,05:09:08,-0.001,0.0,0.0,0.0
01/02/2022,05:10:08,-0.001,0.0,0.0,0.0
01/02/2022,05:12:10,-0.001,0.0,0.0,0.0
01/02/2022,05:13:00,-0.001,0.0,0.0,0.0
01/02/2022,05:14:09,-0.001,0.0,0.0,0.0
01/02/2022,05:15:08,-0.001,0.0,0.0,0.0
01/02/2022,05:16:09,0.000,0.0,0.0,0.0
01/02/2022,05:17:08,-0.001,0.0,0.0,0.0
01/02/2022,05:18:08,-0.001,0.0,0.0,0.0
01/02/2022,05:19:09,-0.000,0.0,0.0,0.0
01/02/2022,05:20:09,-0.001,0.0,0.0,0.0
01/02/2022,05:21:08,-0.001,0.0,0.0,0.0
01/02/2022,05:22:09,-0.001,0.0,0.0,0.0
01/02/2022,05:23:17,-0.001,0.0,0.0,0.0
01/02/2022,05:24:08,-0.001,0.0,0.0,0.0
01/02/2022,05:25:08,-0.001,0.0,0.0,0.0
01/02/2022,05:26:08,-0.001,0.0,0.0,0.0
01/02/2022,05:27:09,-0.000,0.0,0.0,0.0
01/02/2022,05:28:08,-0.002,0.0,0.0,0.0
01/02/2022,05:29:09,-0.001,0.0,0.0,0.0
01/02/2022,05:30:08,-0.001,0.0,0.0,0.0
01/02/2022,05:31:09,-0.001,0.0,0.0,0.0
01/02/2022,05:32:09,-0.001,0.0,0.0,0.0
01/02/2022,05:33:17,-0.001,0.0,0.0,0.0
01/02/2022,05:34:10,-0.000,0.0,0.0,0.0
01/02/2022,05:35:09,-0.001,0.0,0.0,0.0
01/02/2022,05:36:17,0.000,0.0,0.0,0.0
01/02/2022,05:37:09,-0.001,0.0,0.0,0.0
01/02/2022,05:38:09,-0.001,0.0,0.0,0.0
01/02/2022,05:39:08,-0.001,0.0,0.0,0.0
01/02/2022,05:40:09,-0.001,0.0,0.0,0.0
01/02/2022,05:41:08,-0.001,0.0,0.0,0.0
01/02/2022,05:42:09,-0.001,0.0,0.0,0.0
01/02/2022,05:43:09,-0.001,0.0,0.0,0.0
01/02/2022,05:44:08,-0.001,0.0,0.0,0.0
01/02/2022,05:45:09,-0.001,0.0,0.0,0.0
01/02/2022,05:46:08,-0.001,0.0,0.0,0.0
01/02/2022,05:47:08,-0.001,0.0,0.0,0.0
01/02/2022,05:48:08,-0.000,0.0,0.0,0.0
01/02/2022,05:49:08,-0.000,0.0,0.0,0.0
01/02/2022,05:50:09,-0.001,0.0,0.0,0.0
01/02/2022,05:51:08,-0.001,0.0,0.0,0.0
01/02/2022,05:52:09,-0.001,0.0,0.0,0.0
01/02/2022,05:53:09,-0.001,0.0,0.0,0.0
01/02/2022,05:54:10,0.000,0.0,0.0,0.0
01/02/2022,05:55:09,0.000,0.0,0.0,0.0
01/02/2022,05:56:09,-0.001,0.0,0.0,0.0
01/02/2022,05:57:17,-0.001,0.0,0.0,0.0
01/02/2022,05:58:08,-0.001,0.0,0.0,0.0
01/02/2022,05:59:08,-0.001,0.0,0.0,0.0
01/02/2022,06:00:10,-0.001,0.0,0.0,0.0
01/02/2022,06:01:09,-0.001,0.0,0.0,0.0
01/02/2022,06:02:08,-0.001,0.0,0.0,0.0
01/02/2022,06:03:08,-0.002,0.0,0.0,0.0
01/02/2022,06:04:08,-0.001,0.0,0.0,0.0
01/02/2022,06:05:09,-0.002,0.0,0.0,0.0
01/02/2022,06:06:09,0.000,0.0,0.0,0.0
01/02/2022,06:07:17,-0.002,0.0,0.0,0.0
01/02/2022,06:08:09,-0.001,0.0,0.0,0.0
01/02/2022,06:09:08,-0.001,0.0,0.0,0.0
01/02/2022,06:10:09,-0.001,0.0,0.0,0.0
01/02/2022,06:11:09,-0.001,0.0,0.0,0.0
01/02/2022,06:12:09,-0.001,0.0,0.0,0.0
01/02/2022,06:13:08,-0.001,0.0,0.0,0.0
01/02/2022,06:14:08,0.000,0.0,0.0,0.0
01/02/2022,06:15:09,-0.001,0.0,0.0,0.0
01/02/2022,06:16:08,-0.001,0.0,0.0,0.0
01/02/2022,06:17:08,0.000,0.0,0.0,0.0
01/02/2022,06:18:17,-0.001,0.0,0.0,0.0
01/02/2022,06:19:08,-0.001,0.0,0.0,0.0
01/02/2022,06:20:08,-0.001,0.0,0.0,0.0
01/02/2022,06:21:08,-0.001,0.0,0.0,0.0
01/02/2022,06:22:09,-0.001,0.0,0.0,0.0
01/02/2022,06:23:09,-0.001,0.0,0.0,0.0
01/02/2022,06:24:09,-0.001,0.0,0.0,0.0
01/02/2022,06:25:09,-0.001,0.0,0.0,0.0
01/02/2022,06:26:09,-0.002,0.0,0.0,0.0
01/02/2022,06:27:08,-0.001,0.0,0.0,0.0
01/02/2022,06:28:17,-0.001,0.0,0.0,0.0
01/02/2022,06:29:08,-0.001,0.0,0.0,0.0
01/02/2022,06:30:09,-0.001,0.0,0.0,0.0
01/02/2022,06:31:17,-0.000,0.0,0.0,0.0
01/02/2022,06:32:09,-0.001,0.0,0.0,0.0
01/02/2022,06:33:09,-0.002,0.0,0.0,0.0
01/02/2022,06:34:09,-0.001,0.0,0.0,0.0
01/02/2022,06:35:09,-0.001,0.0,0.0,0.0
01/02/2022,06:36:09,0.000,0.0,0.0,0.0
01/02/2022,06:37:08,-0.001,0.0,0.0,0.0
01/02/2022,06:38:08,-0.001,0.0,0.0,0.0
01/02/2022,06:39:08,-0.001,0.0,0.0,0.0
01/02/2022,06:40:09,-0.001,0.0,0.0,0.0
01/02/2022,06:41:17,-0.001,0.0,0.0,0.0
01/02/2022,06:42:16,-0.001,0.0,0.0,0.0
01/02/2022,06:43:09,-0.002,0.0,0.0,0.0
01/02/2022,06:44:09,-0.001,0.0,0.0,0.0
01/02/2022,06:45:08,-0.001,0.0,0.0,0.0
01/02/2022,06:46:09,-0.001,0.0,0.0,0.0
01/02/2022,06:47:09,-0.001,0.0,0.0,0.0
01/02/2022,06:48:09,-0.001,0.0,0.0,0.0
01/02/2022,06:49:08,-0.001,0.0,0.0,0.0
01/02/2022,06:50:09,-0.001,0.0,0.0,0.0
01/02/2022,06:51:09,-0.000,0.0,0.0,0.0
01/02/2022,06:52:17,-0.000,0.0,0.0,0.0
01/02/2022,06:53:09,-0.002,0.0,0.0,0.0
01/02/2022,06:54:09,-0.001,0.0,0.0,0.0
01/02/2022,06:55:16,-0.001,0.0,0.0,0.0
01/02/2022,06:56:08,-0.001,0.0,0.0,0.0
01/02/2022,06:57:09,0.000,0.0,0.0,0.0
01/02/2022,06:58:09,-0.001,0.0,0.0,0.0
01/02/2022,06:59:08,0.000,0.0,0.0,0.0
01/02/2022,07:00:09,-0.001,0.0,0.0,0.0
01/02/2022,07:01:08,-0.001,0.0,0.0,0.0
01/02/2022,07:02:08,-0.001,0.0,0.0,0.0
01/02/2022,07:03:09,-0.001,0.0,0.0,0.0
01/02/2022,07:04:17,-0.001,0.0,0.0,0.0
01/02/2022,07:05:08,-0.001,0.0,0.0,0.0
01/02/2022,07:06:09,-0.001,0.0,0.0,0.0
01/02/2022,07:07:08,-0.001,0.0,0.0,0.0
01/02/2022,07:08:09,0.000,0.0,0.0,0.0
01/02/2022,07:09:08,0.000,0.0,0.0,0.0
01/02/2022,07:10:09,-0.000,0.0,0.0,0.0
01/02/2022,07:11:08,-0.000,0.0,0.0,0.0
01/02/2022,07:12:08,-0.000,0.0,0.0,0.0
01/02/2022,07:13:08,-0.000,0.0,0.0,0.0
01/02/2022,07:14:09,-0.001,0.0,0.0,0.0
01/02/2022,07:15:17,-0.001,0.0,0.0,0.0
01/02/2022,07:16:17,-0.000,0.0,0.0,0.0
01/02/2022,07:17:08,-0.000,0.0,0.0,0.0
01/02/2022,07:18:09,-0.000,0.0,0.0,0.0
01/02/2022,07:19:09,-0.000,0.0,0.0,0.0
01/02/2022,07:20:09,-0.000,0.0,0.0,0.0
01/02/2022,07:21:09,0.000,0.0,0.0,0.0
01/02/2022,07:22:09,-0.000,0.0,0.0,0.0
01/02/2022,07:23:08,-0.000,0.0,0.0,0.0
01/02/2022,07:24:08,-0.000,0.0,0.0,0.0
01/02/2022,07:25:09,-0.000,0.0,0.0,0.0
01/02/2022,07:26:09,-0.000,0.0,0.0,0.0
01/02/2022,07:27:08,-0.000,0.0,0.0,0.0
01/02/2022,07:28:09,-0.000,0.0,0.0,0.0
01/02/2022,07:29:18,0.000,0.0,0.0,0.0
01/02/2022,07:30:09,0.000,0.0,0.0,0.0
01/02/2022,07:31:10,0.000,0.0,0.0,0.0
01/02/2022,07:32:09,0.000,0.0,0.0,0.0
01/02/2022,07:33:09,0.000,0.0,0.0,0.0
01/02/2022,07:34:09,0.000,0.0,0.0,0.0
01/02/2022,07:35:09,0.000,0.0,0.0,0.0
01/02/2022,07:36:08,0.001,0.0,0.0,0.0
01/02/2022,07:37:08,0.001,0.0,0.0,0.0
01/02/2022,07:38:09,0.001,0.0,0.0,0.0
01/02/2022,07:39:18,0.002,0.0,0.0,0.0
01/02/2022,07:40:08,0.002,0.0,0.0,0.0
01/02/2022,07:41:08,0.001,0.0,0.0,0.0
01/02/2022,07:42:00,0.001,0.0,0.0,0.0
01/02/2022,07:43:09,0.001,0.0,0.0,0.0
01/02/2022,07:44:09,0.002,0.0,0.0,0.0
01/02/2022,07:45:08,0.002,0.0,0.0,0.0
01/02/2022,07:46:09,0.002,0.0,0.0,0.0
01/02/2022,07:47:09,0.003,0.0,0.0,0.0
01/02/2022,07:48:09,0.002,0.0,0.0,0.0
01/02/2022,07:49:09,0.002,0.0,0.0,0.0
01/02/2022,07:50:17,0.001,0.0,0.0,0.0
01/02/2022,07:51:09,0.002,0.0,0.0,0.0
01/02/2022,07:52:09,0.002,0.0,0.0,0.0
01/02/2022,07:53:09,0.002,0.0,0.0,0.0
01/02/2022,07:54:09,0.003,0.0,0.0,0.0
01/02/2022,07:55:09,0.003,0.0,0.0,0.0
01/02/2022,07:56:09,0.003,0.0,0.0,0.0
01/02/2022,07:57:09,0.002,0.0,0.0,0.0
01/02/2022,07:58:09,0.003,0.0,0.0,0.0
01/02/2022,07:59:08,0.004,0.0,0.0,0.0
01/02/2022,08:00:08,0.004,0.0,0.0,0.0
01/02/2022,08:01:09,0.004,0.0,0.0,0.0
01/02/2022,08:02:09,0.004,0.0,0.0,0.0
01/02/2022,08:03:09,0.004,0.0,0.0,0.0
01/02/2022,08:04:09,0.004,0.0,0.0,0.0
01/02/2022,08:05:09,0.005,0.0,0.0,0.0
01/02/2022,08:06:09,0.006,0.0,0.0,0.0
01/02/2022,08:07:09,0.006,0.0,0.0,0.0
01/02/2022,08:08:09,0.006,0.0,0.0,0.0
01/02/2022,08:09:09,0.007,0.0,0.0,0.0
01/02/2022,08:10:09,0.008,0.0,0.0,0.0
01/02/2022,08:11:08,0.008,0.0,0.0,0.0
01/02/2022,08:12:08,0.009,0.0,0.001,0.001
01/02/2022,08:13:09,0.009,0.0,0.001,0.0
01/02/2022,08:14:09,0.008,0.0,0.001,0.0
01/02/2022,08:15:09,0.010,0.0,0.001,0.0
01/02/2022,08:16:26,0.010,0.0,0.001,0.0
01/02/2022,08:18:10,0.010,0.0,0.002,0.001
01/02/2022,08:19:08,0.011,0.0,0.002,0.0
01/02/2022,08:20:08,0.011,0.0,0.002,0.0
01/02/2022,08:21:09,0.012,0.0,0.002,0.0
01/02/2022,08:22:09,0.013,0.0,0.002,0.0
01/02/2022,08:23:09,0.014,0.0,0.003,0.001
01/02/2022,08:24:17,0.015,0.0,0.003,0.0
01/02/2022,08:25:09,0.016,0.0,0.003,0.0
01/02/2022,08:26:09,0.016,0.0,0.003,0.0
01/02/2022,08:27:17,0.018,0.0,0.004,0.001
01/02/2022,08:28:09,0.017,0.0,0.004,0.0
01/02/2022,08:29:10,0.019,0.0,0.004,0.0
01/02/2022,08:31:01,0.020,0.0,0.005,0.001
01/02/2022,08:32:09,0.021,0.0,0.005,0.0
01/02/2022,08:33:08,0.022,0.0,0.005,0.0
01/02/2022,08:34:08,0.022,0.0,0.006,0.001
01/02/2022,08:35:09,0.023,0.0,0.006,0.0
01/02/2022,08:36:09,0.023,0.0,0.007,0.001
01/02/2022,08:37:08,0.024,0.0,0.007,0.0
01/02/2022,08:38:09,0.025,0.0,0.007,0.0
01/02/2022,08:39:09,0.025,0.0,0.008,0.001
01/02/2022,08:40:09,0.026,0.0,0.008,0.0
01/02/2022,08:41:08,0.026,0.0,0.009,0.001
01/02/2022,08:42:09,0.027,0.0,0.009,-0.0
01/02/2022,08:43:08,0.027,0.0,0.01,0.001
01/02/2022,08:44:18,0.028,0.0,0.01,0.0
01/02/2022,08:45:09,0.027,0.0,0.01,0.0
01/02/2022,08:46:09,0.029,0.0,0.011,0.001
01/02/2022,08:47:09,0.030,0.0,0.011,-0.0
01/02/2022,08:48:09,0.032,0.0,0.012,0.001
01/02/2022,08:49:08,0.032,0.0,0.012,0.0
01/02/2022,08:50:09,0.033,0.0,0.013,0.001
01/02/2022,08:51:09,0.035,0.0,0.014,0.001
01/02/2022,08:53:09,0.036,0.0,0.015,0.001
01/02/2022,08:54:09,0.038,0.0,0.015,0.0
01/02/2022,08:55:09,0.038,0.0,0.016,0.001
01/02/2022,08:56:09,0.040,0.0,0.017,0.001
01/02/2022,08:57:09,0.038,0.0,0.017,0.0
01/02/2022,08:58:09,0.036,0.0,0.018,0.001
01/02/2022,08:59:09,0.036,0.0,0.019,0.001
01/02/2022,09:00:09,0.040,0.0,0.019,0.0
01/02/2022,09:01:09,0.042,0.0,0.02,0.001
01/02/2022,09:02:09,0.041,0.0,0.021,0.001
01/02/2022,09:03:12,0.039,0.0,0.021,0.0
01/02/2022,09:04:09,0.041,0.0,0.022,0.001
01/02/2022,09:05:09,0.045,0.0,0.023,0.001
01/02/2022,09:06:09,0.050,0.0,0.023,0.0
01/02/2022,09:07:09,0.054,0.0,0.024,0.001
01/02/2022,09:08:18,0.055,0.0,0.025,0.001
01/02/2022,09:09:08,0.053,0.0,0.026,0.001
01/02/2022,09:10:08,0.055,0.0,0.027,0.001
01/02/2022,09:11:09,0.053,0.0,0.028,0.001
01/02/2022,09:12:08,0.052,0.0,0.029,0.001
01/02/2022,09:14:27,0.061,0.0,0.031,0.002
01/02/2022,09:16:10,0.069,0.0,0.033,0.002
01/02/2022,09:17:08,0.072,0.0,0.034,0.001
01/02/2022,09:18:09,0.074,0.0,0.035,0.001
01/02/2022,09:19:08,0.074,0.0,0.036,0.001
01/02/2022,09:20:09,0.076,0.0,0.038,0.002
01/02/2022,09:21:09,0.078,0.0,0.039,0.001
01/02/2022,09:22:13,0.080,0.0,0.04,0.001
01/02/2022,09:23:15,0.080,0.0,0.042,0.002
01/02/2022,09:24:08,0.081,0.0,0.043,0.001
01/02/2022,09:25:09,0.080,0.0,0.044,0.001
01/02/2022,09:26:09,0.082,0.0,0.046,0.002
01/02/2022,09:27:09,0.085,0.0,0.047,0.001
01/02/2022,09:28:10,0.089,0.0,0.048,0.001
01/02/2022,09:29:19,0.089,0.0,0.05,0.002
01/02/2022,09:30:08,0.090,0.0,0.051,0.001
01/02/2022,09:31:09,0.087,0.0,0.053,0.002
01/02/2022,09:32:08,0.082,0.0,0.054,0.001
01/02/2022,09:33:09,0.086,0.0,0.056,0.002
01/02/2022,09:34:17,0.094,0.0,0.057,0.001
01/02/2022,09:35:09,0.099,0.0,0.059,0.002
01/02/2022,09:36:09,0.101,0.0,0.061,0.002
01/02/2022,09:37:08,0.105,0.0,0.062,0.001
01/02/2022,09:38:09,0.107,0.0,0.064,0.002
01/02/2022,09:39:13,0.113,0.0,0.066,0.002
01/02/2022,09:40:09,0.114,0.0,0.068,0.002
01/02/2022,09:41:09,0.116,0.0,0.07,0.002
01/02/2022,09:42:09,0.120,0.0,0.072,0.002
01/02/2022,09:43:17,0.124,0.0,0.074,0.002
01/02/2022,09:45:09,0.130,0.0,0.078,0.004
01/02/2022,09:46:09,0.132,0.0,0.08,0.002
01/02/2022,09:47:09,0.135,0.0,0.082,0.002
01/02/2022,09:48:08,0.137,0.0,0.084,0.002
01/02/2022,09:49:10,0.138,0.0,0.087,0.003
01/02/2022,09:50:09,0.141,0.0,0.089,0.002
01/02/2022,09:51:09,0.143,0.0,0.092,0.003
01/02/2022,09:52:09,0.146,0.0,0.094,0.002
01/02/2022,09:53:17,0.148,0.0,0.097,0.003
01/02/2022,09:54:09,0.149,0.0,0.099,0.002
01/02/2022,09:55:09,0.151,0.0,0.101,0.002
01/02/2022,09:56:09,0.154,0.0,0.104,0.003
01/02/2022,09:57:09,0.155,0.0,0.106,0.002
01/02/2022,09:58:09,0.159,0.0,0.109,0.003
01/02/2022,09:59:09,0.162,0.0,0.112,0.003
01/02/2022,10:00:08,0.163,0.0,0.114,0.002
01/02/2022,10:01:25,0.167,0.0,0.118,0.004
01/02/2022,10:03:11,0.171,0.0,0.123,0.005
01/02/2022,10:04:09,0.174,0.0,0.126,0.003
01/02/2022,10:06:10,0.178,0.0,0.132,0.006
01/02/2022,10:07:09,0.181,0.0,0.135,0.003
01/02/2022,10:08:08,0.184,0.0,0.138,0.003
01/02/2022,10:09:09,0.186,0.0,0.141,0.003
01/02/2022,10:10:09,0.187,0.0,0.144,0.003
01/02/2022,10:11:09,0.189,0.0,0.147,0.003
01/02/2022,10:12:10,0.191,0.0,0.15,0.003
01/02/2022,10:13:10,0.192,0.0,0.153,0.003
01/02/2022,10:14:09,0.195,0.0,0.157,0.004
01/02/2022,10:15:09,0.196,0.0,0.16,0.003
01/02/2022,10:16:10,0.196,0.0,0.163,0.003
01/02/2022,10:17:17,0.197,0.0,0.167,0.004
01/02/2022,10:18:09,0.199,0.0,0.17,0.003
01/02/2022,10:19:09,0.200,0.0,0.173,0.003
01/02/2022,10:20:10,0.203,0.0,0.176,0.003
01/02/2022,10:22:13,0.203,0.0,0.183,0.007
01/02/2022,10:23:09,0.205,0.0,0.186,0.003
01/02/2022,10:24:09,0.204,0.0,0.19,0.004
01/02/2022,10:25:09,0.205,0.0,0.193,0.003
01/02/2022,10:26:09,0.208,0.0,0.197,0.004
01/02/2022,10:27:17,0.208,0.0,0.201,0.004
01/02/2022,10:28:09,0.209,0.0,0.204,0.003